Weather History for Latacunga, Ecuador

Change the Weather History Date:

Monday, February 18, 2013

  Actual Average (SEQU) Record (SEQU)
Temperature  
Mean Temperature 58 °F -  
Max Temperature 66 °F 64 °F 72 °F (2014)
Min Temperature 50 °F 49 °F 44 °F (2004)
Degree Days  
Heating Degree Days 7    
Growing Degree Days 8 (Base 50)    
Moisture  
Dew Point 50 °F    
Average Humidity 78    
Maximum Humidity 100    
Minimum Humidity 51    
Precipitation  
Precipitation 0.01 in - - ()
Sea Level Pressure  
Sea Level Pressure 30.36 in    
Wind  
Wind Speed 6 mph ()    
Max Wind Speed 23 mph    
Max Gust Speed -    
Visibility 6.2 miles    
Events Fog    
Averages and records for this station are not official NWS values.
T = Trace of Precipitation, MM = Missing Value Source: Averaged Metar Reports

Daily Weather History Graph

Daily Weather History Graph

Search for Another Location

Airport:

Trip Planner

Search our weather history database for the weather conditions in past years. The results will help you decide how hot, cold, wet, or windy it might be!

Date:

Astronomy

Feb. 18, 2013 Rise Set
Actual Time 6:24 AM ECT 6:32 PM ECT
Civil Twilight 6:03 AM ECT 6:53 PM ECT
Nautical Twilight 5:38 AM ECT 7:18 PM ECT
Astronomical Twilight 5:14 AM ECT 7:42 PM ECT
Moon 12:54 PM ECT (2/18) 12:27 AM ECT (2/18)
Length of Visible Light 12h 50m
Length of Day
12h 08m
First Quarter, 58% of the Moon is Illuminated
Feb 18
First Quarter
Feb 25
Full
Mar 4
Last Quarter
Mar 11
New
Mar 19
First Quarter

Hourly Weather History & Observations

Time (ECT) Temp. Dew Point Humidity Pressure Visibility Wind Dir Wind Speed Gust Speed Precip Events Conditions
1:00 AM 51.8 °F 50.0 °F 94% 30.39 in 6.2 mi ENE 2.3 mph - N/A   Mostly Cloudy
2:00 AM 50.0 °F 50.0 °F 100% 30.39 in 6.2 mi East 3.5 mph - N/A   Mostly Cloudy
3:00 AM 50.0 °F 48.2 °F 94% 30.36 in 6.2 mi Calm Calm - N/A   Mostly Cloudy
4:00 AM 50.0 °F 50.0 °F 100% 30.36 in 6.2 mi NNE 3.5 mph - N/A   Mostly Cloudy
5:00 AM 51.8 °F 50.0 °F 94% 30.39 in 6.2 mi East 1.2 mph - N/A   Overcast
6:00 AM 51.8 °F 50.0 °F 94% 30.39 in 3.7 mi South 4.6 mph - N/A Fog Light Drizzle
7:00 AM 51 °F 50 °F 95%  in 4 mi SSE 2.3 mph - - Fog Light Fog
7:00 AM 50.0 °F - N/A% 30.39 in 3.7 mi SSE 2.3 mph - N/A Fog Mostly Cloudy
8:00 AM 51.8 °F - N/A% 30.42 in 3.7 mi ESE 3.5 mph - N/A Fog Mostly Cloudy
9:00 AM 53.6 °F 50.0 °F 88% 30.42 in 5.0 mi West 2.3 mph - N/A Fog Mostly Cloudy
10:00 AM 57 °F 44 °F 51%  in 6 mi Calm Calm - -   Partly Cloudy
10:00 AM 57.2 °F 44.6 °F 63% 30.42 in 6.2 mi Calm Calm - N/A   Scattered Clouds
11:00 AM 57.2 °F 51.8 °F 82% 30.39 in 6.2 mi SSE 6.9 mph - N/A   Mostly Cloudy
12:00 PM 59.0 °F 50.0 °F 72% 30.39 in 6.2 mi SSE 8.1 mph - N/A   Mostly Cloudy
1:00 PM 62 °F 50 °F 54%  in 12 mi South 11.5 mph - -   Partly Cloudy
1:00 PM 60.8 °F 50.0 °F 68% 30.36 in 6.2 mi South 11.5 mph - N/A   Scattered Clouds
2:00 PM 62.6 °F 48.2 °F 59% 30.33 in 6.2 mi South 17.3 mph - N/A   Scattered Clouds
3:00 PM 62.6 °F 50.0 °F 63% 30.27 in 6.2 mi South 23.0 mph - N/A   Scattered Clouds
4:00 PM 63 °F 50 °F 54%  in 6 mi South 20.7 mph - -   Partly Cloudy
4:00 PM 62.6 °F 50.0 °F 63% 30.24 in 6.2 mi South 20.7 mph - N/A   Scattered Clouds
5:00 PM 60.8 °F 50.0 °F 68% 30.27 in 6.2 mi South 16.1 mph - N/A   Scattered Clouds
6:00 PM 59.0 °F 50.0 °F 72% 30.27 in 6.2 mi South 13.8 mph - N/A   Scattered Clouds
7:00 PM 57 °F 51 °F 72%  in 12 mi South 13.8 mph - -   Mostly Cloudy
8:00 PM 55.4 °F 50.0 °F 82% 30.33 in 6.2 mi South 10.4 mph - N/A   Scattered Clouds
9:00 PM 53.6 °F 50.0 °F 88% 30.39 in 6.2 mi South 16.1 mph - N/A   Scattered Clouds
10:00 PM 51.8 °F 50.0 °F 94% 30.39 in 6.2 mi South 18.4 mph - N/A   Mostly Cloudy
11:00 PM 51.8 °F 50.0 °F 94% 30.39 in 6.2 mi South 4.6 mph - N/A   Scattered Clouds